Lid_Strength_Index
5 4 4 3 3 3 3 3 4 4 5 4 4 4 4 4 4 4 4 1 -1 -1 -1 -1 -1 -1 -1 -1 -1 -1 -1 -1 -1 -1 -1 -1 -1 -1 -1 -1 -1 -1 -1
4 4 4 3 3 3 3 2 3 3 3 4 4 4 4 4 4 4 5 4 -1 -1 -1 -2 -1 -1 -1 -1 -1 -1 -1 -1 -1 -1 -1 -1 -1 -1 -1 -1 -1 -1 -1
4 4 4 4 4 3 3 3 3 3 3 2 3 3 4 5 4 3 1 1 0 -1 -1 -2 -1 -1 -1 -1 -1 -1 -1 -1 -1 -1 -1 -1 -1 -1 -1 -1 -1 -1 -1
4 5 5 4 4 3 3 3 4 4 4 4 4 4 4 4 2 2 2 1 1 1 -1 -1 -1 -1 -1 -1 -2 -1 -1 -1 -1 -1 -1 -1 -1 -1 -1 -1 -1 -2 -2
3 5 4 4 4 3 3 3 4 4 4 4 3 4 3 3 2 2 2 1 0 1 0 -1 -1 -1 -1 -2 -2 -2 -2 -1 -1 -1 -0 -1 -1 -1 -1 -1 -1 -1 -1
3 4 4 3 3 3 3 3 4 2 4 4 3 3 3 3 3 3 2 1 1 0 1 1 1 -0 -2 -2 -2 -2 -2 -1 -1 -0 0 -0 0 -0 -1 -1 -1 -1 -1
3 4 3 3 3 2 2 1 4 3 4 4 3 3 3 2 4 4 4 3 1 0 -0 -0 1 0 -0 -2 -2 -1 -1 -1 -0 -0 0 2 2 1 0 -0 0 -0 -1
4 3 2 2 1 1 1 2 5 3 3 3 4 4 5 4 3 5 5 5 4 1 1 1 1 1 1 1 0 -0 -0 -0 -0 0 1 1 1 1 1 1 1 1 1
4 3 2 2 2 2 3 4 5 6 5 5 5 4 6 7 6 4 6 5 4 1 1 1 0 1 2 2 1 1 0 1 1 1 1 1 1 1 2 2 1 1 1
4 3 3 4 4 4 5 5 5 6 6 7 7 5 5 6 8 9 7 7 5 2 3 2 1 1 3 4 2 1 1 1 1 1 1 1 1 1 1 1 1 1 1
4 4 4 5 5 6 6 5 6 7 7 7 8 8 8 8 9 11 11 10 8 7 2 2 3 3 3 3 5 3 1 1 1 1 1 1 1 1 1 1 1 2 1
6 4 4 6 5 5 6 6 6 6 7 8 8 8 9 10 10 11 11 11 11 9 5 4 3 4 5 5 4 1 0 0 0 1 1 1 1 1 1 1 1 2 2
7 5 5 6 6 6 6 7 7 7 7 8 8 9 9 9 9 10 11 11 12 10 9 6 6 6 7 7 6 2 1 1 0 1 1 1 1 1 1 1 1 2 2
7 7 4 6 6 6 5 5 7 7 8 8 8 8 9 9 10 10 11 12 13 12 11 11 9 9 8 8 5 2 5 2 1 1 1 1 1 1 1 1 1 2 2
7 7 5 7 7 6 7 7 7 8 6 6 7 7 8 9 11 11 11 11 12 14 14 11 12 9 9 9 7 6 6 2 2 2 1 1 1 1 1 1 1 2 2
8 7 6 7 8 7 7 7 8 7 7 7 7 8 9 10 11 11 12 12 12 13 14 12 11 10 9 7 6 6 6 3 3 2 2 1 0 1 0 0 0 1 2
8 7 7 8 8 9 8 7 7 7 8 8 8 8 9 10 12 12 12 12 12 12 13 12 11 10 9 9 7 6 5 6 5 2 1 1 -0 -1 -0 -0 -1 -1 -0
8 7 7 8 8 9 9 8 8 7 7 8 8 8 9 8 11 11 11 12 12 12 12 12 11 10 9 9 8 7 5 4 4 1 0 -0 -0 -0 -0 -0 -0 -1 -1
8 7 8 8 8 9 9 9 8 8 7 7 8 8 9 9 10 11 11 11 11 10 11 12 11 10 9 8 7 6 6 6 3 1 1 1 1 1 1 1 -0 -1 -1
7 7 8 8 8 9 9 9 9 9 9 8 7 7 8 8 9 10 10 10 10 10 10 10 10 9 9 7 7 7 7 7 6 4 3 2 2 2 2 1 1 0 -1
7 6 8 8 9 9 9 10 9 9 10 9 8 7 7 6 4 6 9 9 9 9 9 9 9 9 9 9 8 8 9 7 7 6 6 6 6 6 5 3 2 1 0
7 7 7 8 9 8 7 6 6 9 10 10 9 8 8 5 5 2 2 3 4 5 6 9 9 9 9 9 8 9 7 7 8 4 6 6 6 6 6 5 2 1 1
7 7 7 7 7 8 6 6 5 8 9 10 10 9 8 7 5 6 5 4 4 4 3 7 8 7 6 6 6 6 7 7 7 6 5 6 7 8 6 4 3 2 2
7 7 7 7 8 7 5 6 5 7 8 7 9 8 8 8 7 6 7 7 7 7 7 5 6 5 4 5 5 5 6 6 6 6 5 7 7 7 7 6 3 1 2
8 7 7 7 7 7 6 6 6 6 7 7 6 7 7 7 6 5 6 7 7 7 5 3 4 3 3 4 4 5 7 7 8 7 6 6 6 7 7 8 4 2 2
7 6 6 6 5 6 5 6 7 7 7 7 8 8 5 6 6 6 7 7 8 7 6 7 6 5 5 5 4 5 6 8 8 8 7 7 6 6 7 6 6 5 5